Weather History for Clarksville, TN

Change the Weather History Date:

Thursday, June 6, 2013

  Actual Average Record
Temperature  
Mean Temperature 73 °F -  
Max Temperature 81 °F - 94 °F (1952)
Min Temperature 65 °F - 47 °F (1993)
Degree Days  
Heating Degree Days 0    
Month to date heating degree days 0  
Since 1 July heating degree days 3952  
Cooling Degree Days 8    
Month to date cooling degree days 36  
Growing Degree Days 22 (Base 50)    
Moisture  
Dew Point 67 °F    
Average Humidity 78    
Maximum Humidity 93    
Minimum Humidity 62    
Precipitation  
Precipitation 0.00 in - 2.63 in (1981)
Month to date precipitation 0.00  
Sea Level Pressure  
Sea Level Pressure 29.81 in    
Wind  
Wind Speed 4 mph (SW)    
Max Wind Speed 21 mph    
Max Gust Speed 28 mph    
Visibility 9 miles    
Events Rain , Thunderstorm    
T = Trace of Precipitation, MM = Missing Value Source: NWS Daily Summary

Daily Weather History Graph

Daily Weather History Graph

Search for Another Location

Airport:

Trip Planner

Search our weather history database for the weather conditions in past years. The results will help you decide how hot, cold, wet, or windy it might be!

Date:

Astronomy

Jun. 06, 2013 Rise Set
Actual Time 5:31 AM CDT 8:05 PM CDT
Civil Twilight 5:00 AM CDT 8:36 PM CDT
Nautical Twilight 4:23 AM CDT 9:13 PM CDT
Astronomical Twilight 3:41 AM CDT 9:55 PM CDT
Moon 4:09 AM CDT (6/6) 6:29 PM CDT (6/6)
Length of Visible Light 15h 35m
Length of Day
14h 34m
Waning Crescent, 3% of the Moon is Illuminated
Jun 6
Waning Crescent
Jun 8
New
Jun 16
First Quarter
Jun 23
Full
Jun 29
Last Quarter

Hourly Weather History & Observations

Time (CDT) Temp. Heat Index Dew Point Humidity Pressure Visibility Wind Dir Wind Speed Gust Speed Precip Events Conditions
12:52 AM 72.0 °F - 69.1 °F 91% 29.82 in 10.0 mi South 3.5 mph - N/A   Scattered Clouds
1:52 AM 72.0 °F - 68.0 °F 87% 29.81 in 10.0 mi SSW 6.9 mph - N/A   Overcast
2:25 AM 71.6 °F - 68.0 °F 88% 29.83 in 10.0 mi SW 8.1 mph - N/A Thunderstorm Overcast
2:42 AM 71.6 °F - 68.0 °F 88% 29.85 in 1.8 mi West 9.2 mph 19.6 mph 0.00 in Rain , Thunderstorm Heavy Thunderstorms and Rain
2:50 AM 69.8 °F - 66.2 °F 88% 29.85 in 2.0 mi NW 18.4 mph 27.6 mph N/A Rain , Thunderstorm Thunderstorms and Rain
2:52 AM 69.1 °F - 66.0 °F 90% 29.83 in 3.0 mi NW 16.1 mph 27.6 mph N/A Rain , Thunderstorm Thunderstorms and Rain
3:09 AM 66.2 °F - 62.6 °F 88% 29.84 in 10.0 mi NW 8.1 mph 18.4 mph N/A Rain Light Rain
3:52 AM 64.9 °F - 63.0 °F 93% 29.80 in 10.0 mi South 3.5 mph - N/A Rain Light Rain
4:37 AM 64.4 °F - 64.4 °F 100% 29.82 in 10.0 mi Calm Calm - N/A Rain Light Rain
4:52 AM 66.0 °F - 64.0 °F 93% 29.81 in 10.0 mi South 3.5 mph - N/A   Overcast
5:24 AM 66.2 °F - 64.4 °F 94% 29.82 in 10.0 mi SSW 4.6 mph - N/A   Overcast
5:52 AM 66.0 °F - 64.0 °F 93% 29.81 in 10.0 mi SSW 3.5 mph - N/A   Overcast
6:52 AM 66.9 °F - 64.9 °F 93% 29.81 in 10.0 mi Calm Calm - N/A Rain Light Rain
7:41 AM 68.0 °F - 66.2 °F 94% 29.82 in 10.0 mi Calm Calm - 0.00 in   Overcast
7:52 AM 68.0 °F - 66.9 °F 96% 29.82 in 10.0 mi Calm Calm - 0.00 in   Overcast
7:59 AM 69.8 °F - 66.2 °F 88% 29.83 in 10.0 mi Calm Calm - N/A   Overcast
8:10 AM 69.8 °F - 66.2 °F 88% 29.81 in 10.0 mi East 4.6 mph - N/A   Overcast
8:37 AM 69.8 °F - 66.2 °F 88% 29.83 in 10.0 mi SE 3.5 mph - N/A   Overcast
8:52 AM 69.1 °F - 66.9 °F 93% 29.82 in 10.0 mi Variable 3.5 mph - N/A   Overcast
8:54 AM 69.8 °F - 66.2 °F 88% 29.83 in 10.0 mi SSW 5.8 mph - N/A   Overcast
9:12 AM 69.8 °F - 66.2 °F 88% 29.83 in 10.0 mi SSW 6.9 mph - N/A   Overcast
9:48 AM 69.8 °F - 68.0 °F 94% 29.83 in 2.5 mi SW 4.6 mph - N/A   Overcast
9:49 AM 70.0 °F - 68.0 °F 93% 29.82 in 2.5 mi SW 4.6 mph - 0.00 in Rain Light Rain
10:04 AM 69.8 °F - 68.0 °F 94% 29.83 in 4.0 mi SW 4.6 mph - 0.00 in   Overcast
10:52 AM 71.1 °F - 68.0 °F 90% 29.81 in 10.0 mi SW 6.9 mph - 0.00 in   Overcast
11:13 AM 73.4 °F - 69.8 °F 88% 29.82 in 10.0 mi Calm Calm - N/A   Overcast
11:52 AM 73.0 °F - 68.0 °F 84% 29.80 in 10.0 mi Variable 3.5 mph - N/A   Overcast
12:12 PM 73.4 °F - 66.2 °F 78% 29.81 in 10.0 mi Calm Calm - N/A   Overcast
12:20 PM 73.4 °F - 66.2 °F 78% 29.81 in 10.0 mi Calm Calm - N/A   Overcast
12:27 PM 73.4 °F - 68.0 °F 83% 29.81 in 10.0 mi NNW 3.5 mph - N/A   Overcast
12:52 PM 73.9 °F - 69.1 °F 85% 29.81 in 9.0 mi West 4.6 mph - 0.00 in Rain Light Rain
1:52 PM 75.9 °F - 68.0 °F 76% 29.80 in 10.0 mi WSW 3.5 mph - N/A   Mostly Cloudy
2:26 PM 78.8 °F - 69.8 °F 74% 29.81 in 10.0 mi SW 6.9 mph - N/A   Mostly Cloudy
2:39 PM 77.0 °F - 68.0 °F 74% 29.81 in 10.0 mi Variable 5.8 mph - N/A   Mostly Cloudy
2:52 PM 80.1 °F 82.7 °F 68.0 °F 67% 29.79 in 10.0 mi Variable 4.6 mph - N/A   Mostly Cloudy
3:52 PM 79.0 °F - 66.0 °F 64% 29.78 in 10.0 mi NNW 10.4 mph - N/A   Overcast
4:52 PM 80.1 °F 82.3 °F 66.9 °F 64% 29.76 in 10.0 mi North 9.2 mph - N/A   Partly Cloudy
5:52 PM 80.1 °F 82.3 °F 66.9 °F 64% 29.75 in 10.0 mi NNE 5.8 mph - N/A   Mostly Cloudy
6:52 PM 78.1 °F - 64.9 °F 64% 29.76 in 10.0 mi NNW 4.6 mph - N/A   Clear
7:52 PM 75.0 °F - 66.9 °F 76% 29.77 in 10.0 mi Calm Calm - N/A   Partly Cloudy
8:52 PM 73.0 °F - 66.0 °F 79% 29.78 in 10.0 mi Calm Calm - N/A   Clear
9:52 PM 71.1 °F - 66.9 °F 87% 29.79 in 10.0 mi Calm Calm - N/A   Clear
10:52 PM 68.0 °F - 64.9 °F 90% 29.79 in 6.0 mi Calm Calm - N/A   Clear
11:52 PM 66.0 °F - 64.0 °F 93% 29.79 in 3.0 mi ESE 3.5 mph - N/A   Clear